TimePST,TemperatureF,Dew PointF,Humidity,Sea Level PressureIn,VisibilityMPH,Wind Direction,Wind SpeedMPH,Gust SpeedMPH,PrecipitationIn,Events,Conditions,WindDirDegrees,DateUTC
12:56 AM,24.1,17.1,75,30.32,10.0,Calm,Calm,-,N/A,,Overcast,0,2013-01-24 08:56:00
1:56 AM,25.0,19.0,78,30.33,10.0,Calm,Calm,-,0.00,,Overcast,0,2013-01-24 09:56:00
2:56 AM,25.0,19.0,78,30.32,10.0,Calm,Calm,-,0.00,,Overcast,0,2013-01-24 10:56:00
3:24 AM,24.8,19.4,80,30.21,9.0,Calm,Calm,-,0.01,,Overcast,0,2013-01-24 11:24:00
3:38 AM,26.6,21.2,80,30.21,8.0,NE,4.6,-,0.02,,Overcast,40,2013-01-24 11:38:00
3:56 AM,27.0,21.9,81,30.31,7.0,Calm,Calm,-,0.02,,Overcast,0,2013-01-24 11:56:00
4:14 AM,26.6,23.0,86,30.20,7.0,Calm,Calm,-,0.00,Rain,Light Freezing Rain,0,2013-01-24 12:14:00
4:42 AM,28.4,23.0,80,30.20,7.0,Calm,Calm,-,0.01,,Overcast,0,2013-01-24 12:42:00
4:49 AM,28.4,24.8,86,30.20,6.0,Calm,Calm,-,0.01,,Overcast,0,2013-01-24 12:49:00
4:56 AM,28.0,24.1,85,30.30,6.0,Calm,Calm,-,0.01,,Overcast,0,2013-01-24 12:56:00
5:25 AM,28.4,24.8,86,30.20,6.0,Calm,Calm,-,0.01,Rain,Light Freezing Rain,0,2013-01-24 13:25:00
5:56 AM,28.9,25.0,85,30.32,7.0,East,3.5,-,0.02,,Overcast,80,2013-01-24 13:56:00
6:13 AM,28.4,26.6,93,30.22,6.0,East,3.5,-,0.01,Rain,Light Freezing Rain,100,2013-01-24 14:13:00
7:27 AM,30.2,28.4,93,30.22,4.0,Calm,Calm,-,0.02,Rain,Light Freezing Rain,0,2013-01-24 15:27:00
7:56 AM,30.0,28.0,92,30.32,5.0,Calm,Calm,-,0.03,Rain,Light Freezing Rain,0,2013-01-24 15:56:00
8:14 AM,30.2,28.4,93,30.23,4.0,Calm,Calm,-,0.00,,Overcast,0,2013-01-24 16:14:00
8:56 AM,30.9,28.9,92,30.35,3.0,Calm,Calm,-,0.01,,Overcast,0,2013-01-24 16:56:00
9:04 AM,30.2,28.4,93,30.25,4.0,Calm,Calm,-,0.00,Rain,Light Freezing Rain,0,2013-01-24 17:04:00
9:19 AM,30.2,30.2,100,30.25,4.0,Calm,Calm,-,0.00,,Overcast,0,2013-01-24 17:19:00
9:54 AM,32.0,30.2,93,30.26,4.0,Calm,Calm,-,0.00,,Overcast,0,2013-01-24 17:54:00
9:56 AM,32.0,30.9,96,30.36,4.0,Calm,Calm,-,0.00,,Overcast,0,2013-01-24 17:56:00
10:02 AM,32.0,30.2,93,30.27,4.0,Calm,Calm,-,N/A,,Overcast,0,2013-01-24 18:02:00
10:20 AM,33.8,30.2,87,30.27,5.0,Calm,Calm,-,N/A,,Overcast,0,2013-01-24 18:20:00
10:49 AM,33.8,30.2,87,30.26,7.0,West,3.5,-,N/A,,Overcast,260,2013-01-24 18:49:00
10:56 AM,33.1,30.9,92,30.34,8.0,West,3.5,-,N/A,,Overcast,260,2013-01-24 18:56:00
11:56 AM,37.9,33.1,83,30.30,10.0,Calm,Calm,-,N/A,,Overcast,0,2013-01-24 19:56:00
12:04 PM,35.6,33.8,93,30.23,10.0,Calm,Calm,-,N/A,,Overcast,0,2013-01-24 20:04:00
12:31 PM,35.6,33.8,93,30.22,9.0,Calm,Calm,-,N/A,,Overcast,0,2013-01-24 20:31:00
12:56 PM,37.9,33.1,83,30.27,10.0,Calm,Calm,-,N/A,,Overcast,0,2013-01-24 20:56:00
1:08 PM,37.4,33.8,87,30.21,10.0,Calm,Calm,-,N/A,,Overcast,0,2013-01-24 21:08:00
1:51 PM,37.4,33.8,87,30.21,10.0,South,3.5,-,N/A,,Overcast,180,2013-01-24 21:51:00
1:56 PM,37.9,34.0,86,30.28,10.0,Calm,Calm,-,N/A,,Overcast,0,2013-01-24 21:56:00
2:21 PM,37.4,33.8,87,30.23,10.0,Calm,Calm,-,N/A,,Overcast,0,2013-01-24 22:21:00
2:56 PM,37.0,33.1,86,30.30,10.0,Calm,Calm,-,N/A,,Overcast,0,2013-01-24 22:56:00
3:56 PM,37.0,33.1,86,30.30,10.0,Calm,Calm,-,N/A,,Overcast,0,2013-01-24 23:56:00
4:56 PM,35.1,30.9,85,30.30,10.0,Calm,Calm,-,N/A,,Overcast,0,2013-01-25 00:56:00
5:25 PM,35.6,32.0,87,30.24,10.0,Calm,Calm,-,N/A,,Overcast,0,2013-01-25 01:25:00
5:56 PM,35.1,32.0,89,30.31,10.0,Calm,Calm,-,N/A,,Overcast,0,2013-01-25 01:56:00
6:56 PM,35.1,32.0,89,30.32,6.0,East,5.8,-,N/A,,Overcast,90,2013-01-25 02:56:00
7:56 PM,35.1,32.0,89,30.31,5.0,North,4.6,-,N/A,,Overcast,10,2013-01-25 03:56:00
8:56 PM,34.0,33.1,96,30.31,5.0,Calm,Calm,-,N/A,,Overcast,0,2013-01-25 04:56:00
9:24 PM,35.6,32.0,87,30.26,6.0,ESE,5.8,-,N/A,,Overcast,110,2013-01-25 05:24:00
9:33 PM,35.6,32.0,87,30.26,6.0,East,4.6,-,N/A,,Overcast,100,2013-01-25 05:33:00
9:56 PM,34.0,32.0,92,30.32,6.0,Calm,Calm,-,N/A,,Overcast,0,2013-01-25 05:56:00
10:56 PM,32.0,30.9,96,30.32,2.5,Calm,Calm,-,N/A,,Overcast,0,2013-01-25 06:56:00
11:12 PM,32.0,30.2,93,30.27,3.0,Calm,Calm,-,N/A,,Overcast,0,2013-01-25 07:12:00
11:22 PM,32.0,30.2,93,30.27,3.0,Calm,Calm,-,N/A,,Overcast,0,2013-01-25 07:22:00
11:56 PM,33.1,32.0,96,30.31,3.0,Calm,Calm,-,N/A,,Overcast,0,2013-01-25 07:56:00